• In Russia
  • List of Countries
  • For 7 days
  • Water Temperature
  • Satellite Maps
  • Weather Map
  • Weather Widgets
  • user-avatar
    Login

    Hourly Weather Neuquén

    Today, 23 February, Friday

    Time Temperature Precipitation Wind Pressure Humidity
    00:00 +18°C° 0.1 mm 9 mps 737 mmHg 46%
    01:00 +18°C° 0.1 mm 9 mps 737 mmHg 48%
    02:00 +17°C° 0 mm 9 mps 737 mmHg 51%
    03:00 +17°C° 0 mm 9 mps 737 mmHg 54%
    04:00 +16°C° 0 mm 9 mps 737 mmHg 57%
    05:00 +16°C° 0.1 mm 8 mps 738 mmHg 59%
    06:00 +15°C° 0.1 mm 8 mps 738 mmHg 61%
    07:00 +15°C° 0.1 mm 8 mps 739 mmHg 62%
    08:00 +16°C° 0 mm 7 mps 739 mmHg 58%
    09:00 +17°C° 0 mm 7 mps 739 mmHg 53%
    10:00 +19°C° 0 mm 6 mps 739 mmHg 49%
    11:00 +20°C° 0 mm 5 mps 739 mmHg 45%
    12:00 +21°C° 0 mm 4 mps 739 mmHg 41%
    13:00 +24°C° 0 mm 3 mps 739 mmHg 38%
    14:00 +24°C° 0 mm 3 mps 738 mmHg 36%
    15:00 +25°C° 0 mm 3 mps 738 mmHg 35%
    16:00 +26°C° 0 mm 3 mps 737 mmHg 34%
    17:00 +25°C° 0 mm 3 mps 737 mmHg 35%
    18:00 +25°C° 0 mm 3 mps 737 mmHg 36%
    19:00 +25°C° 0 mm 3 mps 738 mmHg 37%
    20:00 +24°C° 0 mm 3 mps 738 mmHg 39%
    21:00 +24°C° 0 mm 3 mps 738 mmHg 41%
    22:00 +24°C° 0 mm 3 mps 738 mmHg 43%
    23:00 +22°C° 0 mm 3 mps 738 mmHg 46%

    Tomorrow, 24 February, Saturday

    Time Temperature Precipitation Wind Pressure Humidity
    00:00 +22°C° 0 mm 3 mps 738 mmHg 50%
    01:00 +21°C° 0 mm 3 mps 737 mmHg 53%
    02:00 +21°C° 0 mm 3 mps 737 mmHg 56%
    03:00 +20°C° 0 mm 3 mps 737 mmHg 58%
    04:00 +20°C° 0 mm 3 mps 737 mmHg 61%
    05:00 +20°C° 0 mm 3 mps 737 mmHg 59%
    06:00 +20°C° 0 mm 3 mps 737 mmHg 57%
    07:00 +21°C° 0 mm 3 mps 737 mmHg 55%
    08:00 +22°C° 0 mm 3 mps 737 mmHg 50%
    09:00 +24°C° 0 mm 3 mps 737 mmHg 45%
    10:00 +26°C° 0 mm 2 mps 736 mmHg 40%
    11:00 +27°C° 0 mm 2 mps 736 mmHg 37%
    12:00 +28°C° 0 mm 2 mps 735 mmHg 33%
    13:00 +30°C° 0 mm 2 mps 735 mmHg 30%
    14:00 +31°C° 0 mm 3 mps 734 mmHg 28%
    15:00 +31°C° 0 mm 3 mps 734 mmHg 26%
    16:00 +33°C° 0 mm 4 mps 733 mmHg 24%
    17:00 +33°C° 0 mm 3 mps 733 mmHg 25%
    18:00 +31°C° 0 mm 3 mps 733 mmHg 26%
    19:00 +31°C° 0 mm 3 mps 734 mmHg 27%
    20:00 +30°C° 0 mm 3 mps 734 mmHg 30%
    21:00 +29°C° 0 mm 3 mps 734 mmHg 33%
    22:00 +29°C° 0 mm 3 mps 734 mmHg 36%
    23:00 +28°C° 0 mm 2 mps 734 mmHg 39%

    Day after tomorrow, 25 February, Sunday

    Time Temperature Precipitation Wind Pressure Humidity
    00:00 +27°C° 0 mm 2 mps 734 mmHg 42%
    01:00 +27°C° 0 mm 2 mps 733 mmHg 45%
    02:00 +26°C° 0 mm 1 mps 733 mmHg 47%
    03:00 +26°C° 0 mm 1 mps 733 mmHg 49%
    04:00 +25°C° 0 mm 1 mps 733 mmHg 51%
    05:00 +26°C° 0 mm 1 mps 733 mmHg 49%
    06:00 +27°C° 0 mm 1 mps 733 mmHg 47%
    07:00 +27°C° 0 mm 1 mps 734 mmHg 45%
    08:00 +28°C° 0 mm 1 mps 734 mmHg 41%
    09:00 +29°C° 0 mm 1 mps 734 mmHg 37%
    10:00 +30°C° 0 mm 1 mps 734 mmHg 33%
    11:00 +31°C° 0 mm 1 mps 733 mmHg 31%
    12:00 +32°C° 0 mm 1 mps 733 mmHg 28%
    13:00 +33°C° 0 mm 1 mps 732 mmHg 26%
    14:00 +33°C° 0 mm 1 mps 732 mmHg 25%
    15:00 +35°C° 0 mm 2 mps 732 mmHg 24%
    16:00 +35°C° 0 mm 2 mps 731 mmHg 22%
    17:00 +35°C° 0 mm 2 mps 731 mmHg 23%
    18:00 +34°C° 0 mm 2 mps 731 mmHg 23%
    19:00 +34°C° 0 mm 2 mps 731 mmHg 24%
    20:00 +32°C° 0 mm 2 mps 732 mmHg 25%
    21:00 +32°C° 0 mm 2 mps 732 mmHg 27%
    22:00 +31°C° 0 mm 2 mps 732 mmHg 28%
    23:00 +31°C° 0.1 mm 3 mps 732 mmHg 29%

    26 February, Monday

    Time Temperature Precipitation Wind Pressure Humidity
    00:00 +30°C° 0.1 mm 4 mps 732 mmHg 31%
    01:00 +29°C° 0.1 mm 5 mps 731 mmHg 32%
    02:00 +29°C° 0.1 mm 4 mps 731 mmHg 31%
    03:00 +28°C° 0.1 mm 4 mps 731 mmHg 30%
    04:00 +27°C° 0.1 mm 4 mps 731 mmHg 30%
    05:00 +28°C° 0 mm 4 mps 731 mmHg 27%
    06:00 +28°C° 0 mm 5 mps 731 mmHg 24%
    07:00 +28°C° 0 mm 5 mps 732 mmHg 22%
    08:00 +30°C° 0 mm 5 mps 732 mmHg 20%
    09:00 +32°C° 0 mm 5 mps 732 mmHg 19%
    10:00 +33°C° 0 mm 5 mps 732 mmHg 17%
    11:00 +34°C° 0 mm 4 mps 731 mmHg 17%
    12:00 +35°C° 0 mm 4 mps 731 mmHg 16%
    13:00 +35°C° 0 mm 4 mps 730 mmHg 16%
    14:00 +35°C° 0 mm 5 mps 730 mmHg 15%
    15:00 +35°C° 0 mm 5 mps 729 mmHg 15%
    16:00 +35°C° 0 mm 5 mps 729 mmHg 15%
    17:00 +35°C° 0 mm 5 mps 729 mmHg 16%
    18:00 +34°C° 0 mm 4 mps 730 mmHg 17%
    19:00 +33°C° 0 mm 4 mps 730 mmHg 18%
    20:00 +33°C° 0 mm 5 mps 730 mmHg 22%
    21:00 +32°C° 0 mm 6 mps 731 mmHg 26%
    22:00 +30°C° 0 mm 7 mps 731 mmHg 29%
    23:00 +29°C° 0 mm 7 mps 731 mmHg 33%

    27 February, Tuesday

    Time Temperature Precipitation Wind Pressure Humidity
    00:00 +28°C° 0 mm 6 mps 731 mmHg 36%
    01:00 +28°C° 0 mm 6 mps 731 mmHg 39%
    02:00 +27°C° 0 mm 6 mps 731 mmHg 40%
    03:00 +27°C° 0 mm 5 mps 732 mmHg 41%
    04:00 +26°C° 0 mm 5 mps 732 mmHg 42%
    05:00 +26°C° 0 mm 5 mps 732 mmHg 42%
    06:00 +26°C° 0 mm 5 mps 733 mmHg 41%
    07:00 +26°C° 0 mm 5 mps 733 mmHg 41%
    08:00 +27°C° 0 mm 5 mps 733 mmHg 39%
    09:00 +28°C° 0 mm 5 mps 734 mmHg 37%
    10:00 +29°C° 0 mm 5 mps 734 mmHg 35%
    11:00 +30°C° 0 mm 5 mps 734 mmHg 32%
    12:00 +30°C° 0 mm 4 mps 733 mmHg 30%
    13:00 +32°C° 0 mm 4 mps 733 mmHg 27%
    14:00 +33°C° 0 mm 4 mps 733 mmHg 26%
    15:00 +33°C° 0 mm 4 mps 733 mmHg 25%
    16:00 +33°C° 0 mm 4 mps 733 mmHg 24%
    17:00 +32°C° 0 mm 5 mps 733 mmHg 26%
    18:00 +32°C° 0 mm 6 mps 734 mmHg 27%
    19:00 +30°C° 0 mm 6 mps 734 mmHg 29%
    20:00 +29°C° 0 mm 7 mps 734 mmHg 31%
    21:00 +28°C° 0 mm 7 mps 734 mmHg 33%
    22:00 +27°C° 0 mm 7 mps 735 mmHg 35%
    23:00 +26°C° 0 mm 7 mps 735 mmHg 38%

    28 February, Wednesday

    Time Temperature Precipitation Wind Pressure Humidity
    00:00 +26°C° 0 mm 6 mps 735 mmHg 42%
    01:00 +24°C° 0 mm 6 mps 735 mmHg 46%
    02:00 +23°C° 0 mm 5 mps 734 mmHg 48%
    03:00 +23°C° 0 mm 4 mps 734 mmHg 51%
    04:00 +22°C° 0 mm 3 mps 734 mmHg 54%
    05:00 +24°C° 0 mm 3 mps 735 mmHg 53%
    06:00 +24°C° 0 mm 3 mps 735 mmHg 52%
    07:00 +24°C° 0 mm 3 mps 735 mmHg 52%
    08:00 +26°C° 0 mm 3 mps 735 mmHg 47%
    09:00 +27°C° 0 mm 3 mps 735 mmHg 43%
    10:00 +28°C° 0 mm 4 mps 735 mmHg 39%
    11:00 +30°C° 0 mm 4 mps 734 mmHg 35%
    12:00 +31°C° 0 mm 3 mps 734 mmHg 32%
    13:00 +33°C° 0 mm 3 mps 733 mmHg 28%
    14:00 +34°C° 0 mm 4 mps 733 mmHg 27%
    15:00 +34°C° 0 mm 4 mps 732 mmHg 25%
    16:00 +35°C° 0 mm 4 mps 732 mmHg 24%
    17:00 +34°C° 0 mm 4 mps 732 mmHg 25%
    18:00 +34°C° 0 mm 4 mps 732 mmHg 25%
    19:00 +33°C° 0 mm 4 mps 732 mmHg 26%
    20:00 +33°C° 0 mm 4 mps 732 mmHg 27%
    21:00 +32°C° 0 mm 4 mps 732 mmHg 28%
    22:00 +30°C° 0 mm 4 mps 732 mmHg 29%
    23:00 +30°C° 0 mm 4 mps 732 mmHg 31%
    Show more